LFRM

Details ICAO LFRM (LME)
Name Le Mans Arnage
Region France
Timezone Europe/Paris (UTC+2.0)
Plans Departing 31
Arriving 46
Stats Elevation 194 ft / 59 m (AMSL)
Location 47.947839° 0.201291°
Runways 1
Magnetic Variation 0.051° E
Sunrise 2018-05-22 04:14:12 UTC / 2018-05-22 06:14:12 Local
Sunset 2018-05-22 19:40:22 UTC / 2018-05-22 21:40:22 Local
Advertisement - Login to hide

Runways

ID Width Length Bearing (true) Bearing (mag) Surface Threshold Offset Overrun Length
02 98 ft / 30 m 4,657 ft / 1,420 m 20.27° 20.22° Asphalt 0 ft / 0 m 0 ft / 0 m
20 98 ft / 30 m 4,657 ft / 1,420 m 200.28° 200.23° Asphalt 918 ft / 280 m 0 ft / 0 m

Approach Navaids

Runway Type Ident Frequency Range Bearing (true) Bearing (mag) Slope Elevation
02 Localiser LEM 109.75 MHz 18 nm / 33 km 20.27° 20.22° - 194 ft / 59 m (AMSL)
02 DME LEM 109.75 MHz 18 nm / 33 km - - - 180 ft / 55 m (AMSL)

Map

Weather


0- 5 10 15 20 25 30 35+ Temperature / ° C

Clouds and Precipitation
Forecast for 2018-05-22 00:00 UTC. Updated 3 hours ago

Ground ~20,000 ft ~40,000 ft Winds

METAR

LFRM 220230Z AUTO 01004KT 330V040 9999 ///TCU 16/12 Q1012

TAF

TAF TAF LFRM 212118Z 2121/2218 CNL

Frequencies

Tower 125.90 MHz LE MANS TWR
Warning: Do not use this data for real-world aviation or navigation. No guarantee of current accuracy is given.